timestamp,waterbody_station,lease,latitude,longitude,deployment_start_date,deployment_end_date,sensor,depth,mooring,Temperature_degrees Celsius,Dissolved Oxygen_percent saturation,Salinity_practical salinity units
2019-07-28T00:00:00,Denas Pond-0193,193.0,46.00718,-60.98854,2018-10-30,2019-09-17,HOBO-10755219,2.0,fixed,22.729,,
2019-07-28T00:15:00,Denas Pond-0193,193.0,46.00718,-60.98854,2018-10-30,2019-09-17,HOBO-10755219,2.0,fixed,22.848,,
2019-07-28T00:30:00,Denas Pond-0193,193.0,46.00718,-60.98854,2018-10-30,2019-09-17,HOBO-10755219,2.0,fixed,22.729,,
2019-07-28T00:45:00,Denas Pond-0193,193.0,46.00718,-60.98854,2018-10-30,2019-09-17,HOBO-10755219,2.0,fixed,22.729,,
2019-07-28T01:00:00,Denas Pond-0193,193.0,46.00718,-60.98854,2018-10-30,2019-09-17,HOBO-10755219,2.0,fixed,23.016,,
2019-07-28T01:15:00,Denas Pond-0193,193.0,46.00718,-60.98854,2018-10-30,2019-09-17,HOBO-10755219,2.0,fixed,23.088,,
2019-07-28T01:30:00,Denas Pond-0193,193.0,46.00718,-60.98854,2018-10-30,2019-09-17,HOBO-10755219,2.0,fixed,23.136,,
2019-07-28T01:45:00,Denas Pond-0193,193.0,46.00718,-60.98854,2018-10-30,2019-09-17,HOBO-10755219,2.0,fixed,23.352,,
2019-07-28T02:00:00,Denas Pond-0193,193.0,46.00718,-60.98854,2018-10-30,2019-09-17,HOBO-10755219,2.0,fixed,23.328,,
2019-07-28T02:15:00,Denas Pond-0193,193.0,46.00718,-60.98854,2018-10-30,2019-09-17,HOBO-10755219,2.0,fixed,23.328,,
2019-07-28T02:30:00,Denas Pond-0193,193.0,46.00718,-60.98854,2018-10-30,2019-09-17,HOBO-10755219,2.0,fixed,23.376,,
2019-07-28T02:45:00,Denas Pond-0193,193.0,46.00718,-60.98854,2018-10-30,2019-09-17,HOBO-10755219,2.0,fixed,23.4,,
2019-07-28T03:00:00,Denas Pond-0193,193.0,46.00718,-60.98854,2018-10-30,2019-09-17,HOBO-10755219,2.0,fixed,23.497,,
2019-07-28T03:15:00,Denas Pond-0193,193.0,46.00718,-60.98854,2018-10-30,2019-09-17,HOBO-10755219,2.0,fixed,23.472,,
2019-07-28T03:30:00,Denas Pond-0193,193.0,46.00718,-60.98854,2018-10-30,2019-09-17,HOBO-10755219,2.0,fixed,23.424,,
2019-07-28T03:45:00,Denas Pond-0193,193.0,46.00718,-60.98854,2018-10-30,2019-09-17,HOBO-10755219,2.0,fixed,23.448,,
2019-07-28T04:00:00,Denas Pond-0193,193.0,46.00718,-60.98854,2018-10-30,2019-09-17,HOBO-10755219,2.0,fixed,23.521,,
2019-07-28T04:15:00,Denas Pond-0193,193.0,46.00718,-60.98854,2018-10-30,2019-09-17,HOBO-10755219,2.0,fixed,23.641,,
2019-07-28T04:30:00,Denas Pond-0193,193.0,46.00718,-60.98854,2018-10-30,2019-09-17,HOBO-10755219,2.0,fixed,23.713,,
2019-07-28T04:45:00,Denas Pond-0193,193.0,46.00718,-60.98854,2018-10-30,2019-09-17,HOBO-10755219,2.0,fixed,23.689,,
2019-07-28T05:00:00,Denas Pond-0193,193.0,46.00718,-60.98854,2018-10-30,2019-09-17,HOBO-10755219,2.0,fixed,23.689,,
2019-07-28T05:15:00,Denas Pond-0193,193.0,46.00718,-60.98854,2018-10-30,2019-09-17,HOBO-10755219,2.0,fixed,23.737,,
2019-07-28T05:30:00,Denas Pond-0193,193.0,46.00718,-60.98854,2018-10-30,2019-09-17,HOBO-10755219,2.0,fixed,23.617,,
2019-07-28T05:45:00,Denas Pond-0193,193.0,46.00718,-60.98854,2018-10-30,2019-09-17,HOBO-10755219,2.0,fixed,23.665,,
2019-07-28T06:00:00,Denas Pond-0193,193.0,46.00718,-60.98854,2018-10-30,2019-09-17,HOBO-10755219,2.0,fixed,23.857,,
2019-07-28T06:15:00,Denas Pond-0193,193.0,46.00718,-60.98854,2018-10-30,2019-09-17,HOBO-10755219,2.0,fixed,23.857,,
2019-07-28T06:30:00,Denas Pond-0193,193.0,46.00718,-60.98854,2018-10-30,2019-09-17,HOBO-10755219,2.0,fixed,23.881,,
2019-07-28T06:45:00,Denas Pond-0193,193.0,46.00718,-60.98854,2018-10-30,2019-09-17,HOBO-10755219,2.0,fixed,24.002,,
2019-07-28T07:00:00,Denas Pond-0193,193.0,46.00718,-60.98854,2018-10-30,2019-09-17,HOBO-10755219,2.0,fixed,24.146,,
2019-07-28T07:15:00,Denas Pond-0193,193.0,46.00718,-60.98854,2018-10-30,2019-09-17,HOBO-10755219,2.0,fixed,24.219,,
2019-07-28T07:30:00,Denas Pond-0193,193.0,46.00718,-60.98854,2018-10-30,2019-09-17,HOBO-10755219,2.0,fixed,24.171,,
2019-07-28T07:45:00,Denas Pond-0193,193.0,46.00718,-60.98854,2018-10-30,2019-09-17,HOBO-10755219,2.0,fixed,24.05,,
2019-07-28T08:00:00,Denas Pond-0193,193.0,46.00718,-60.98854,2018-10-30,2019-09-17,HOBO-10755219,2.0,fixed,24.074,,
2019-07-28T08:15:00,Denas Pond-0193,193.0,46.00718,-60.98854,2018-10-30,2019-09-17,HOBO-10755219,2.0,fixed,24.171,,
2019-07-28T08:30:00,Denas Pond-0193,193.0,46.00718,-60.98854,2018-10-30,2019-09-17,HOBO-10755219,2.0,fixed,24.243,,
2019-07-28T08:45:00,Denas Pond-0193,193.0,46.00718,-60.98854,2018-10-30,2019-09-17,HOBO-10755219,2.0,fixed,24.195,,
2019-07-28T09:00:00,Denas Pond-0193,193.0,46.00718,-60.98854,2018-10-30,2019-09-17,HOBO-10755219,2.0,fixed,24.026,,
2019-07-28T09:15:00,Denas Pond-0193,193.0,46.00718,-60.98854,2018-10-30,2019-09-17,HOBO-10755219,2.0,fixed,24.098,,
2019-07-28T09:30:00,Denas Pond-0193,193.0,46.00718,-60.98854,2018-10-30,2019-09-17,HOBO-10755219,2.0,fixed,23.881,,
2019-07-28T09:45:00,Denas Pond-0193,193.0,46.00718,-60.98854,2018-10-30,2019-09-17,HOBO-10755219,2.0,fixed,23.809,,
2019-07-28T10:00:00,Denas Pond-0193,193.0,46.00718,-60.98854,2018-10-30,2019-09-17,HOBO-10755219,2.0,fixed,23.833,,
2019-07-28T10:15:00,Denas Pond-0193,193.0,46.00718,-60.98854,2018-10-30,2019-09-17,HOBO-10755219,2.0,fixed,23.954,,
2019-07-28T10:30:00,Denas Pond-0193,193.0,46.00718,-60.98854,2018-10-30,2019-09-17,HOBO-10755219,2.0,fixed,23.978,,
2019-07-28T10:45:00,Denas Pond-0193,193.0,46.00718,-60.98854,2018-10-30,2019-09-17,HOBO-10755219,2.0,fixed,23.833,,
2019-07-28T11:00:00,Denas Pond-0193,193.0,46.00718,-60.98854,2018-10-30,2019-09-17,HOBO-10755219,2.0,fixed,23.641,,
2019-07-28T11:15:00,Denas Pond-0193,193.0,46.00718,-60.98854,2018-10-30,2019-09-17,HOBO-10755219,2.0,fixed,23.593,,
2019-07-28T11:30:00,Denas Pond-0193,193.0,46.00718,-60.98854,2018-10-30,2019-09-17,HOBO-10755219,2.0,fixed,23.617,,
2019-07-28T11:45:00,Denas Pond-0193,193.0,46.00718,-60.98854,2018-10-30,2019-09-17,HOBO-10755219,2.0,fixed,23.593,,
2019-07-28T12:00:00,Denas Pond-0193,193.0,46.00718,-60.98854,2018-10-30,2019-09-17,HOBO-10755219,2.0,fixed,23.665,,
2019-07-28T12:15:00,Denas Pond-0193,193.0,46.00718,-60.98854,2018-10-30,2019-09-17,HOBO-10755219,2.0,fixed,23.713,,
2019-07-28T12:30:00,Denas Pond-0193,193.0,46.00718,-60.98854,2018-10-30,2019-09-17,HOBO-10755219,2.0,fixed,23.713,,
2019-07-28T12:45:00,Denas Pond-0193,193.0,46.00718,-60.98854,2018-10-30,2019-09-17,HOBO-10755219,2.0,fixed,23.761,,
2019-07-28T13:00:00,Denas Pond-0193,193.0,46.00718,-60.98854,2018-10-30,2019-09-17,HOBO-10755219,2.0,fixed,23.93,,
2019-07-28T13:15:00,Denas Pond-0193,193.0,46.00718,-60.98854,2018-10-30,2019-09-17,HOBO-10755219,2.0,fixed,23.978,,
2019-07-28T13:30:00,Denas Pond-0193,193.0,46.00718,-60.98854,2018-10-30,2019-09-17,HOBO-10755219,2.0,fixed,24.122,,
2019-07-28T13:45:00,Denas Pond-0193,193.0,46.00718,-60.98854,2018-10-30,2019-09-17,HOBO-10755219,2.0,fixed,24.074,,
2019-07-28T14:00:00,Denas Pond-0193,193.0,46.00718,-60.98854,2018-10-30,2019-09-17,HOBO-10755219,2.0,fixed,24.098,,
2019-07-28T14:15:00,Denas Pond-0193,193.0,46.00718,-60.98854,2018-10-30,2019-09-17,HOBO-10755219,2.0,fixed,24.388,,
2019-07-28T14:30:00,Denas Pond-0193,193.0,46.00718,-60.98854,2018-10-30,2019-09-17,HOBO-10755219,2.0,fixed,24.339,,
2019-07-28T14:45:00,Denas Pond-0193,193.0,46.00718,-60.98854,2018-10-30,2019-09-17,HOBO-10755219,2.0,fixed,23.93,,
2019-07-28T15:00:00,Denas Pond-0193,193.0,46.00718,-60.98854,2018-10-30,2019-09-17,HOBO-10755219,2.0,fixed,23.905,,
2019-07-28T15:15:00,Denas Pond-0193,193.0,46.00718,-60.98854,2018-10-30,2019-09-17,HOBO-10755219,2.0,fixed,23.857,,
2019-07-28T15:30:00,Denas Pond-0193,193.0,46.00718,-60.98854,2018-10-30,2019-09-17,HOBO-10755219,2.0,fixed,23.93,,
2019-07-28T15:45:00,Denas Pond-0193,193.0,46.00718,-60.98854,2018-10-30,2019-09-17,HOBO-10755219,2.0,fixed,23.93,,
2019-07-28T16:00:00,Denas Pond-0193,193.0,46.00718,-60.98854,2018-10-30,2019-09-17,HOBO-10755219,2.0,fixed,23.785,,
2019-07-28T16:15:00,Denas Pond-0193,193.0,46.00718,-60.98854,2018-10-30,2019-09-17,HOBO-10755219,2.0,fixed,23.665,,
2019-07-28T16:30:00,Denas Pond-0193,193.0,46.00718,-60.98854,2018-10-30,2019-09-17,HOBO-10755219,2.0,fixed,23.569,,
2019-07-28T16:45:00,Denas Pond-0193,193.0,46.00718,-60.98854,2018-10-30,2019-09-17,HOBO-10755219,2.0,fixed,23.761,,
2019-07-28T17:00:00,Denas Pond-0193,193.0,46.00718,-60.98854,2018-10-30,2019-09-17,HOBO-10755219,2.0,fixed,23.809,,
2019-07-28T17:15:00,Denas Pond-0193,193.0,46.00718,-60.98854,2018-10-30,2019-09-17,HOBO-10755219,2.0,fixed,23.689,,
2019-07-28T17:30:00,Denas Pond-0193,193.0,46.00718,-60.98854,2018-10-30,2019-09-17,HOBO-10755219,2.0,fixed,23.737,,
2019-07-28T17:45:00,Denas Pond-0193,193.0,46.00718,-60.98854,2018-10-30,2019-09-17,HOBO-10755219,2.0,fixed,23.545,,
2019-07-28T18:00:00,Denas Pond-0193,193.0,46.00718,-60.98854,2018-10-30,2019-09-17,HOBO-10755219,2.0,fixed,23.617,,
2019-07-28T18:15:00,Denas Pond-0193,193.0,46.00718,-60.98854,2018-10-30,2019-09-17,HOBO-10755219,2.0,fixed,23.737,,
2019-07-28T18:30:00,Denas Pond-0193,193.0,46.00718,-60.98854,2018-10-30,2019-09-17,HOBO-10755219,2.0,fixed,23.857,,
2019-07-28T18:45:00,Denas Pond-0193,193.0,46.00718,-60.98854,2018-10-30,2019-09-17,HOBO-10755219,2.0,fixed,23.954,,
2019-07-28T19:00:00,Denas Pond-0193,193.0,46.00718,-60.98854,2018-10-30,2019-09-17,HOBO-10755219,2.0,fixed,24.002,,
2019-07-28T19:15:00,Denas Pond-0193,193.0,46.00718,-60.98854,2018-10-30,2019-09-17,HOBO-10755219,2.0,fixed,23.905,,
2019-07-28T19:30:00,Denas Pond-0193,193.0,46.00718,-60.98854,2018-10-30,2019-09-17,HOBO-10755219,2.0,fixed,23.954,,
2019-07-28T19:45:00,Denas Pond-0193,193.0,46.00718,-60.98854,2018-10-30,2019-09-17,HOBO-10755219,2.0,fixed,24.026,,
2019-07-28T20:00:00,Denas Pond-0193,193.0,46.00718,-60.98854,2018-10-30,2019-09-17,HOBO-10755219,2.0,fixed,24.026,,
2019-07-28T20:15:00,Denas Pond-0193,193.0,46.00718,-60.98854,2018-10-30,2019-09-17,HOBO-10755219,2.0,fixed,24.002,,
2019-07-28T20:30:00,Denas Pond-0193,193.0,46.00718,-60.98854,2018-10-30,2019-09-17,HOBO-10755219,2.0,fixed,24.002,,
2019-07-28T20:45:00,Denas Pond-0193,193.0,46.00718,-60.98854,2018-10-30,2019-09-17,HOBO-10755219,2.0,fixed,24.05,,
2019-07-28T21:00:00,Denas Pond-0193,193.0,46.00718,-60.98854,2018-10-30,2019-09-17,HOBO-10755219,2.0,fixed,24.05,,
2019-07-28T21:15:00,Denas Pond-0193,193.0,46.00718,-60.98854,2018-10-30,2019-09-17,HOBO-10755219,2.0,fixed,23.93,,
2019-07-28T21:30:00,Denas Pond-0193,193.0,46.00718,-60.98854,2018-10-30,2019-09-17,HOBO-10755219,2.0,fixed,23.857,,
2019-07-28T21:45:00,Denas Pond-0193,193.0,46.00718,-60.98854,2018-10-30,2019-09-17,HOBO-10755219,2.0,fixed,23.665,,
2019-07-28T22:00:00,Denas Pond-0193,193.0,46.00718,-60.98854,2018-10-30,2019-09-17,HOBO-10755219,2.0,fixed,23.617,,
2019-07-28T22:15:00,Denas Pond-0193,193.0,46.00718,-60.98854,2018-10-30,2019-09-17,HOBO-10755219,2.0,fixed,23.521,,
2019-07-28T22:30:00,Denas Pond-0193,193.0,46.00718,-60.98854,2018-10-30,2019-09-17,HOBO-10755219,2.0,fixed,23.617,,
2019-07-28T22:45:00,Denas Pond-0193,193.0,46.00718,-60.98854,2018-10-30,2019-09-17,HOBO-10755219,2.0,fixed,23.641,,
2019-07-28T23:00:00,Denas Pond-0193,193.0,46.00718,-60.98854,2018-10-30,2019-09-17,HOBO-10755219,2.0,fixed,23.569,,
2019-07-28T23:15:00,Denas Pond-0193,193.0,46.00718,-60.98854,2018-10-30,2019-09-17,HOBO-10755219,2.0,fixed,23.617,,
2019-07-28T23:30:00,Denas Pond-0193,193.0,46.00718,-60.98854,2018-10-30,2019-09-17,HOBO-10755219,2.0,fixed,23.569,,
2019-07-28T23:45:00,Denas Pond-0193,193.0,46.00718,-60.98854,2018-10-30,2019-09-17,HOBO-10755219,2.0,fixed,23.569,,
